Location: Newark
(45.4422°N, 16.2769°E)
Time: 17:22:10
(UTC+00:00)

Transit 2A Rocket - Visible Passes

Search period start: 07 December 2019 00:00
Search period end: 17 December 2019 00:00
Orbit: 594 x 909 km, 66.7° (Epoch: 07 December)

Date Brightness Start Highest point End Pass type
(mag) Time Alt. Az. Time Alt. Az. Time Alt. Az.
07 Dec 5.3 16:41:36 10° SW 16:46:02 49° NW 16:49:30 15° NNE visible
08 Dec 4.6 15:58:52 10° SSW 16:03:27 86° NW 16:07:49 10° NNE visible
08 Dec 7.0 17:44:06 10° WNW 17:46:38 15° NW 17:48:12 13° NNW visible
09 Dec 6.6 17:00:15 10° W 17:03:45 22° NW 17:06:55 11° N visible
10 Dec 5.9 16:16:53 10° WSW 16:21:01 35° NW 16:25:00 10° NNE visible
11 Dec 7.1 17:20:24 10° NW 17:21:49 11° NNW 17:23:14 10° NNW visible
12 Dec 6.9 16:35:59 10° W 16:38:52 17° NW 16:41:43 10° N visible
13 Dec 6.3 15:52:19 10° WSW 15:56:02 25° NW 15:59:41 10° NNE visible
15 Dec 7.0 16:12:00 10° WNW 16:14:02 13° NW 16:16:03 10° N visible
